Location: Dehesa de la Cepeda
(40.6574°N, 4.3013°W)
Time: 20:13:57
(UTC+00:00)

Explorer 7 - Pass Details

Date: 14 August 2021
Orbit: 484 x 676 km, 50.3° (Epoch: 17 September)

Event Time Altitude Azimuth Distance (km) Brightness Sun altitude
Exits shadow 02:52:26 16° 328° (NNW) 1,326 8.9 -24.9°
Maximum altitude 02:53:46 19° 355° (N) 1,208 9.0 -24.7°
Drops below altitude 10° 02:56:33 10° 43° (NE) 1,682 10.4 -24.4°
Sets 02:59:14 0° 61° (ENE) 2,584 11.4 -24.1°
